Location: Unspecified
(0.0000°N, 0.0000°E)
Time: 00:53:50
(UTC+00:00)

Traac - Pass Details

Date: 19 December 2025
Orbit: 951 x 1102 km, 32.4° (Epoch: 19 January)

Event Time Altitude Azimuth Distance (km) Brightness Sun altitude
Exits shadow 05:09:36 13° 291° (WNW) 2,627 9.6 -10.9°
Maximum altitude 05:15:47 59° 214° (SW) 1,235 8.5 -9.5°
Drops below altitude 10° 05:22:53 10° 136° (SE) 2,945 11.8 -7.8°
Sets 05:25:43 0° 132° (SE) 3,909 12.8 -7.2°
